Время (UTC), дата Ветер
(°,м/с) 
Видим.   Явления Облачность Т
(°С)
Тd
(°С)
f(%) Тe
(°С)
Pmin
(гПа)
dP
(гПа)
Po
(мм)
O2
(г/м3)
Тmin Tmax R s Состояние
почвы
00 01.03.17 150 (ЮВ) 10 км    ясно 
-8.9 -10.4 89 -9  1025.8  0.5  758  317           
03 01.03.17 150 (ЮВ) 10 км    6/0 верхняя 
[Cs]
-9.8 -11.2 89 -10  1025.9  758  318  -10      56  равномерный
сухой снег
100% 
06 01.03.17 150 (ЮВ) 10 км    5/0 верхняя 
[Ci fib]
-8.4 -10.1 88 -11  1026.2  0.4  758  316  -10.2         
09 01.03.17 140 (ЮВ) 10 км    ясно 
-4.3 -8.6 72 -6  1025.1  -0.8  757  311           
12 01.03.17 150 (ЮВ) 10 км    ясно 
-1.9 -6.8 69 -3  1024.3  -0.7  757  308           
15 01.03.17 160 (Ю) 10 км    10/10 600 м 
[Sc]
-2.1 -5.5 77 -3  1024.1  -0.2  757  308    -1.3       
18 01.03.17 170 (Ю) 10 км    8/6 600 м средняя 
[Sc|Ac As]
-2.2 -5.1 80 -3  1023.6  -0.5  756  308           
21 01.03.17 160 (Ю) 10 км    10/6 600 м средняя 
[Sc|Ac As]
-0.9 -3.8 81 1023.2  -0.2  756  306           
00 02.03.17 180 (Ю) 10 км    10/6 600 м средняя 
[Sc|As op]
-0.6 -3.3 82 1023  -0.3  756  306           
03 02.03.17 190 (Ю) 10 км    3/0 средняя 
[Ac lent]
-0.6 -3.3 82 -1  1022.6  -0.3  756  306  -2.3      56  равномерный
сухой снег
100% 
06 02.03.17 140 (ЮВ) 10 км    5/0 средняя 
[Ac trans]
-0.1 -3.1 80 -1  1023  0.4  756  305           
09 02.03.17 160 (Ю) 10 км    10/0 средняя, верхняя 
[Ac trans|Ci fib]
+2.3 -2.3 72 +2  1021.9  -0.9  755  302           
12 02.03.17 160 (Ю) 10 км    10/0 средняя, верхняя 
[Ac lent|Cs]
+2.1 -2.2 73 +1  1020.7  -1.2  754  302           
15 02.03.17 160 (Ю) 3{11}  10 км    10/0 средняя, верхняя 
[Ac lent|Cs]
+0.1 -2.8 81 -2  1020.2  -0.6  754  304    +2.9       
18 02.03.17 170 (Ю) 3-10{11}  10 км    10/5 300 м верхняя 
[St|Cs]
-0.7 -3.2 83 -3  1019.4  -0.9  753  305           
21 02.03.17 170 (Ю) 3{11}  10 км    10/10 600 м 
[Sc]
-1.3 -3.1 88 -3  1018.9  -0.5  753  305           
00 03.03.17 180 (Ю) 10 км    10/10 600 м 
[Sc]
-1.3 -3.1 88 -3  1018.1  -0.8  752  305           
03 03.03.17 180 (Ю) 3{10}  10 км  слаб. снег  10/0 средняя 
[As op]
-0.8 -2.4 89 -3  1017.1  -0.9  752  304  -1.5    0.0  55  равномерный
сухой снег
100% 
06 03.03.17 180 (Ю) 3{11}  10 км  {снег}  10/0 средняя 
[As op]
-0.2 -1.8 89 -2  1016.9  -0.2  751  303           
09 03.03.17 180 (Ю) 10 км    10/8 600 м средняя 
[Sc diur, vesp|As op]
+0.9 -1.8 82 -1  1016.3  -0.5  751  302           
12 03.03.17 170 (Ю) 10 км    10/8 600 м средняя 
[Sc diur, vesp|As op]
+1.2 -2.1 79 +1  1015.6  -0.7  751  301           
15 03.03.17 150 (ЮВ) 3{10}  10 км  в посл. час дождь  10/8 600 м средняя 
[Sc diur, vesp|As op]
+0.6 -2.3 81 -1  1015  -0.7  750  302    +1.3  0.0     
18 03.03.17 170 (Ю) 10 км  {дождь}  10/0 средняя 
[Ac As]
+0.5 -2.4 81 1014.6  -0.4  750  302           
21 03.03.17 190 (Ю) 10 км    10/8 300 м средняя 
[Frnb|Ac As]
-0.1 -2.7 83 +1  1014.5  0.1  750  302           
00 04.03.17 170 (Ю) 10 км  слаб. снег  10/9 300 м средняя 
[Sc|As op]
-0.4 -2.3 87 1014.2  -0.4  749  303           
03 04.03.17 200 (Ю) 10 км  {снег}  10/10 300 м 
[St]
+0.3 -1.4 88 +1  1015  0.8  750  302  -0.6    0.5  54  равномерный
мокрый или
старый снег
100% 
06 04.03.17 170 (Ю) 10 км  {снег}  10/10 300 м 
[Sc]
+1.1 -0.5 89 +2  1016  1.1  751  301           
09 04.03.17 190 (Ю) 10 км    10/10 600 м 
[Sc]
+2.6 -0.1 82 +3  1016.3  0.4  751  300           
12 04.03.17 180 (Ю) 10 км    10/10 600 м 
[Sc]
+2 -0.3 85 +3  1016.9  0.5  752  301           
15 04.03.17 150 (ЮВ) 10 км    10/10 600 м 
[Sc]
+1.3 -0.6 87 +2  1018.1  1.1  752  302    +2.7       
18 04.03.17 120 (ЮВ) 10 км    9/0 средняя 
[Ac As]
+1.1 -0.8 87 +2  1019.4  1.2  753  302           
21 04.03.17 230 (ЮЗ) 10 км    8/0 средняя 
[Ac As]
+1.3 -0.9 85 +2  1020.3  0.9  754  302           
00 05.03.17 160 (Ю) н/о    н/о 
+0.5 -1.4 87 +1  1020.8  0.5  754  304           
03 05.03.17 тихо ()   10 км    10/0 средняя 
[As op]
+0.2 -1.7 87 1022  1.1  755  304  +0      52  равномерный
сухой снег
100% 
06 05.03.17 240 (ЮЗ) 10 км    ясно 
+1.9 -2.1 75 1022.8  0.9  756  303  -0         
09 05.03.17 150 (ЮВ) 10 км    3/0 верхняя 
[Cs]
+5.2 -2.1 59 +5  1022.2  -0.4  756  299           
12 05.03.17 160 (Ю) 10 км    3/0 верхняя 
[Cs]
+4.3 -1.9 64 +4  1020.9  -1.3  755  300           
15 05.03.17 170 (Ю) 10 км    10/0 средняя 
[As op]
+2.7 -2 71 +1  1019  -1.9  753  301    +6.2       
18 05.03.17 170 (Ю) 10 км    10/0 средняя 
[Ac As]
+2.8 -1.7 72 +2  1017.9  -1.1  752  300           
21 05.03.17 180 (Ю) 10 км    10/0 средняя 
[Ac As]
+3.2 -1.7 70 +2  1017.2  -0.7  752  300           
00 06.03.17 180 (Ю) 10 км    10/0 средняя 
[Ac As]
+2.6 -1.1 77 +3  1016  -1.1  751  300           
03 06.03.17 180 (Ю) 10 км    9/0 средняя 
[Ac As]
+3.2 -0.3 78 +4  1016.2  0.2  751  299  +2.5      48  равномерный
мокрый или
старый снег
100% 
06 06.03.17 200 (Ю) 10 км    10/9 1000 м средняя 
[Sc|Ac und]
+3.3 +0.3 81 +4  1016.9  0.7  752  299           
09 06.03.17 240 (ЮЗ) 10 км    10/10 600 м 
[Sc]
+4.1 +0.4 77 +2  1017.2  0.3  752  298           
12 06.03.17 170 (Ю) 10 км    10/6 600 м средняя 
[Sc|Ac As]
+5.1 -0.1 69 +6  1017.6  0.5  752  298           
15 06.03.17 130 (ЮВ) 10 км    10/0 средняя 
[Ac und]
+3.6 -0.8 73 +4  1018.9  1.2  753  300    +5.1       
18 06.03.17 тихо ()   10 км    10/0 средняя 
[As op]
+3.5 -1.3 71 +4  1020  754  300           
21 06.03.17 270 (З) 10 км    10/0 средняя 
[Ac As]
+3.4 -1.4 71 +4  1021.6  1.6  755  301           
00 07.03.17 260 (З) 10 км  слаб. дождь  10/0 средняя 
[As op]
+2.5 -1.3 76 +3  1023.9  2.2  757  302           
03 07.03.17 120 (ЮВ) 10 км  {дождь}  10/0 средняя 
[As op]
+1.8 -0.9 82 +3  1025.7  1.8  758  304  +1.8    0.0  49  равномерный
мокрый или
старый снег
100% 
06 07.03.17 070 (В) 10 км  {дождь}  10/0 средняя 
[As op]
+1.9 +0 87 +1  1027.5  1.8  759  304           
09 07.03.17 070 (В) 10 км    10/9 600 м средняя 
[Sc|As op]
+2.1 -0.1 85 +1  1028.5  760  304           
12 07.03.17 090 (В) 10 км    10/8 600 м средняя 
[Sc diur, vesp|As op]
+1.7 -0.5 85 1030.1  1.5  761  305           
15 07.03.17 070 (В) 10 км    10/6 600 м средняя 
[Sc|As op]
+1 -0.9 87 -1  1032  1.8  763  306    +2.3       
18 07.03.17 090 (В) 10 км    10/10 200 м 
[St]
+0.8 -0.6 90 1033.2  1.1  764  307           
21 07.03.17 090 (В) 4000 м  дымка  10/10 100 м 
[St]
+0.7 -0.6 91 1034.1  0.8  764  307           
00 08.03.17 080 (В) 10 км    10/10 200 м 
[St]
+0.3 -1 91 1035.5  0.8  765  308           
03 08.03.17 100 (В) 10 км    10/10 200 м 
[St]
-0 -1.3 91 -1  1037.1  1.5  766  309  -0.1      45  равномерный
мокрый или
старый снег
100% 
06 08.03.17 100 (В) 10 км    10/10 300 м 
[St]
-0.2 -1.9 88 -2  1038.3  1.1  767  310  -0.2         
09 08.03.17 100 (В) 10 км    10/9 600 м средняя 
[Sc|Ac cuf]
-0.2 -2.6 84 -2  1039.2  0.9  768  310           
12 08.03.17 100 (В) 10 км    10/9 600 м средняя 
[Sc|Ac und]
-0.6 -3.4 81 -3  1039.7  0.4  768  311           
15 08.03.17 100 (В) 10 км    10/9 600 м средняя 
[Sc|Ac und]
-1 -3.6 82 -2  1040  0.4  768  311    +0       
18 08.03.17 090 (В) 10 км    10/8 600 м средняя 
[Sc|As op]
-2 -4.4 84 -3  1040  768  312           
21 08.03.17 120 (ЮВ) 10 км    10/8 600 м средняя 
[Sc|As op]
-2.5 -4.6 85 -4  1039.4  -0.7  768  313           
00 09.03.17 110 (В) 10 км    10/10 600 м 
[Sc]
-3 -4.6 89 -4  1039.2  -0.2  768  313           
03 09.03.17 110 (В) 10 км    10/0 средняя 
[As op]
-3.7 -4.8 92 -3  1039  -0.3  768  314  -3.7      45  равномерный
мокрый или
старый снег
100% 
06 09.03.17 130 (ЮВ) 10 км    10/0 средняя 
[As op]
-2.8 -4 91 -2  1038.7  -0.2  767  313  -3.7         
09 09.03.17 190 (Ю) 10 км    10/0 средняя 
[As op]
-0.9 -2.8 87 1038.2  -0.4  767  311           
12 09.03.17 170 (Ю) 10 км    10/0 средняя 
[As op]
-0.6 -2.8 85 1037.7  -0.4  767  310           
15 09.03.17 160 (Ю) 10 км    10/0 средняя 
[As op]
-1.2 -3 88 -1  1037.2  -0.5  766  311    -0.4       
18 09.03.17 170 (Ю) 10 км    10/0 средняя 
[As trans]
-2.3 -3.8 89 -2  1037  -0.3  766  312           
21 09.03.17 150 (ЮВ) 0500 м  туман  10/10 50 м 
-3.2 -4.2 93 -3  1036.5  -0.6  766  313           
00 10.03.17 180 (Ю) 0200 м  туман  ?/?  
-3.8 -4.7 93 -3  1036.2  -0.3  766  313           
03 10.03.17 170 (Ю) 0500 м  туман  ?/?  
-3.9 -4.7 94 -3  1036.1  0.1  765  313  -3.9      43  равномерный
сухой снег
100% 
06 10.03.17 150 (ЮВ) 0500 м  снежные зёрна{туман}  ?/?  
-4.9 -5.8 93 -6  1036.2  0.1  766  315  -4.9         
09 10.03.17 150 (ЮВ) 4000 м  дымка{снег, туман}  10/10 200 м 
[St]
-4.6 -5.5 93 -6  1035.7  -0.4  765  314           
12 10.03.17 150 (ЮВ) 10 км  {снег, туман}  10/10 300 м 
[Sc]
-3.2 -4.4 91 -4  1035  -0.6  765  312           
15 10.03.17 140 (ЮВ) 10 км    5/3 200 м верхняя 
[St|Ci fib]
-3.2 -5 87 -4  1034  -1  764  312    -2.2  0.0     
18 10.03.17 140 (ЮВ) 10 км    5/0 верхняя 
[Ci fib]
-5.1 -6.8 88 -6  1033.4  -0.7  763  314           
21 10.03.17 180 (Ю) 10 км  снежные зёрна  10/10 300 м 
[St]
-5.2 -6.3 92 -7  1032.9  -0.5  763  314           
00 11.03.17 180 (Ю) 10 км  {снег}  10/10 300 м 
[St]
-5.7 -6.7 93 -7  1032.9  763  315           
03 11.03.17 140 (ЮВ) 10 км    10/10 300 м 
[St]
-4.6 -5.9 91 -4  1032.1  -0.7  763  313  -6.1    0.0  43  равномерный
мокрый или
старый снег
100% 
06 11.03.17 180 (Ю) 10 км    10/10 600 м 
[Sc]
-2 -3.9 87 -3  1031.9  0.1  762  310           
09 11.03.17 170 (Ю) 10 км    4/0 верхняя 
[Ci fib]
+1.4 -3.9 68 +1  1030.8  -0.8  762  306           
12 11.03.17 170 (Ю) 10 км    8/0 верхняя 
[Ci fib]
+2.3 -4.8 59 +3  1029.8  -1  761  305           
15 11.03.17 150 (ЮВ) 10 км    8/0 верхняя 
[Cs]
-0.9 -5.1 73 1029.8  -0.2  761  308    +2.7       
18 11.03.17 150 (ЮВ) 10 км    6/0 верхняя 
[Ci fib]
-2.8 -6.1 78 -4  1030.2  0.2  761  311           
21 11.03.17 150 (ЮВ) 10 км    3/0 верхняя 
[Ci fib]
-4.5 -7.1 82 -4  1029.9  -0.3  761  312           
00 12.03.17 140 (ЮВ) 10 км    8/0 верхняя 
[Ci fib]
-5.8 -8 84 -5  1030.6  0.6  761  314           
03 12.03.17 150 (ЮВ) 10 км    6/0 верхняя 
[Ci fib]
-7.6 -9.6 86 -9  1030.9  0.2  761  317  -7.6      43  равномерный
мокрый или
старый снег
100% 
06 12.03.17 170 (Ю) 10 км    8/0 средняя, верхняя 
[Ac lent|Ci]
-3.7 -7.7 74 -3  1031  0.3  762  312  -8         
09 12.03.17 260 (З) 10 км    9/0 средняя, верхняя 
[Ac lent|Ci]
+1 -5.4 62 1030.7  762  306           
12 12.03.17 160 (Ю) 10 км    8/0 средняя, верхняя 
[Ac lent|Ci fib]
+1.9 -4.7 62 +3  1030.1  -0.6  761  305           
15 12.03.17 170 (Ю) 10 км    10/0 средняя, верхняя 
[Ac As|Ci fib]
+0.2 -6 63 +1  1029.5  -0.7  761  307    +2.8       
18 12.03.17 160 (Ю) 10 км    9/0 верхняя 
[Cs]
-2.4 -6.6 73 -2  1029.8  0.2  761  310           
21 12.03.17 130 (ЮВ) 10 км    10/0 верхняя 
[Cs]
-2.8 -7.4 71 -2  1029.5  -0.4  761  310           
00 13.03.17 160 (Ю) 10 км    10/0 верхняя 
[Cs]
-4.2 -8.5 72 -4  1029.1  -0.4  760  312           
03 13.03.17 240 (ЮЗ) 10 км    10/0 средняя 
[As op]
-3.5 -9.6 63 -3  1028.6  -0.4  760  311  -4.6      42  равномерный
мокрый или
старый снег
100% 
06 13.03.17 250 (З) 10 км    9/0 средняя 
[Ac trans]
-1.9 -9.4 56 -4  1028.7  0.2  760  309           
09 13.03.17 240 (ЮЗ) 10 км    10/0 средняя 
[As op]
-0.3 -7.7 57 -2  1028.1  -0.6  760  307           
12 13.03.17 240 (ЮЗ) 10 км    10/0 средняя 
[As op]
+1 -6.3 58 -1  1027.2  -0.7  759  305           
15 13.03.17 230 (ЮЗ) 10 км    10/0 средняя 
[As op]
+0.6 -5.1 66 1026.6  -0.6  759  306    +1.6       
18 13.03.17 210 (ЮЗ) 10 км    10/0 средняя 
[As op]
-1 -4.9 75 1026.4  -0.3  758  307           
21 13.03.17 тихо ()   10 км    10/0 средняя 
[As op]
-2.8 -5.5 82 -3  1026.1  -0.5  758  309           
00 14.03.17 тихо ()   10 км    10/0 средняя 
[As op]
-2.2 -6.2 74 -2  1025.6  -0.4  758  309           
03 14.03.17 тихо ()   10 км    10/0 средняя, верхняя 
[Ac As|Cs]
-2.6 -7.1 71 -3  1025.5  -0.2  758  309  -3.3      42  равномерный
мокрый или
старый снег
100% 
06 14.03.17 280 (З) 10 км    3/0 верхняя 
[Ci fib]
+0.1 -6.1 63 +1  1026.2  0.9  758  306  -3.5         
09 14.03.17 280 (З) 10 км    8/0 средняя 
[Ac trans]
+3.2 -5 55 +4  1026.3  0.2  758  303           
12 14.03.17 тихо ()   10 км    8/0 средняя 
[Ac As]
+6 -4.4 47 +6  1026.2  0.1  759  300           
15 14.03.17 140 (ЮВ) 10 км    9/0 средняя 
[Ac As]
+2.4 -4 63 +3  1027.2  0.8  759  304    +6.1       
18 14.03.17 100 (В) 10 км    ясно 
+0.7 -4.1 70 +1  1027.7  0.4  759  306           
21 14.03.17 110 (В) 10 км    10/0 средняя 
[Ac und]
-0.4 -4.1 76 1027.9  0.1  760  307           
00 15.03.17 100 (В) 10 км    ясно 
-2.1 -5 80 -2  1027.6  -0.4  759  309           
03 15.03.17 120 (ЮВ) 10 км    ясно 
-3.9 -5.8 87 -3  1027.1  -0.5  759  311  -3.9      42  равномерный
мокрый или
старый снег
100% 
06 15.03.17 150 (ЮВ) 10 км    3/0 верхняя 
[Ci fib]
-2 -5.3 78 -1  1026.7  -0.3  759  309  -4.3         
09 15.03.17 160 (Ю) 10 км    3/0 верхняя 
[Ci fib]
+1.2 -5.1 63 +1  1025.5  -1  758  305           
12 15.03.17 150 (ЮВ) 10 км    3/0 верхняя 
[Ci fib]
+1.3 -4.8 64 +1  1024.4  -1.1  757  304           
15 15.03.17 150 (ЮВ) 10 км    8/0 верхняя 
[Cs]
+0.3 -5 68 -1  1022.5  -1.9  756  305    +2       
18 15.03.17 150 (ЮВ) 10 км    ясно 
-2 -6 74 -3  1021.9  -0.7  755  307           
21 15.03.17 130 (ЮВ) 10 км    ясно 
-4.1 -6.9 81 -5  1021.3  -0.7  755  309           
00 16.03.17 140 (ЮВ) 10 км    ясно 
-4.8 -6.9 85 -6  1020.8  -0.5  754  310           
03 16.03.17 130 (ЮВ) 10 км    4/0 верхняя 
[Ci fib]
-5.9 -7.8 86 -7  1020.4  -0.5  754  311  -5.9      42  равномерный
мокрый или
старый снег
100% 
06 16.03.17 150 (ЮВ) 10 км    ясно 
-3.8 -7.9 73 -7  1020.4  0.1  754  309  -6         
09 16.03.17 140 (ЮВ) 10 км    ясно 
+0.1 -5.5 66 -2  1020  -0.2  754  304           
12 16.03.17 150 (ЮВ) 10 км    4/0 средняя 
[Ac lent]
+2.3 -4.6 60 +1  1020.3  0.5  754  302           
15 16.03.17 130 (ЮВ) 10 км    8/0 средняя, верхняя 
[Ac lent|Ci]
+0.7 -4.6 68 1020.6  0.2  754  304    +2.4       
18 16.03.17 140 (ЮВ) 10 км    6/0 верхняя 
[Ci fib]
-1.7 -6.5 70 -4  1021.3  0.5  755  307           
21 16.03.17 130 (ЮВ) 10 км    10/0 верхняя 
[Cs]
-3.1 -8.3 67 -5  1021.8  0.4  755  309           
00 17.03.17 140 (ЮВ) 10 км    10/0 верхняя 
[Cs]
-4.6 -10.1 65 -6  1021.9  755  310           
03 17.03.17 140 (ЮВ) 10 км    10/0 средняя 
[As op]
-5.4 -10.4 68 -8  1022.6  0.7  755  312  -5.4      42  равномерный
мокрый или
старый снег
100% 
06 17.03.17 150 (ЮВ) 10 км    10/0 верхняя 
[Cs]
-3.7 -9.7 63 -6  1023  0.5  756  310           
09 17.03.17 140 (ЮВ) 10 км    10/0 средняя, верхняя 
[Ac lent|Cs]
-2 -8.4 62 -4  1022.9  756  308           
12 17.03.17 150 (ЮВ) 10 км    10/6 600 м средняя 
[Sc|As op]
-1.4 -6.6 68 -3  1022.9  756  307           
15 17.03.17 140 (ЮВ) 2000 м  снег  10/10 300 м 
[Ns]
-3 -4.5 89 -4  1022.3  -0.6  755  308    -1     
18 17.03.17 140 (ЮВ) 10 км  {снег}  10/10 600 м 
[Sc]
-2.3 -7.4 68 -4  1022.1  -0.2  755  308           
21 17.03.17 130 (ЮВ) 10 км    10/10 600 м 
[Sc]
-2.3 -7.6 67 -4  1021  -1.1  754  307           
00 18.03.17 130 (ЮВ) 10 км    10/10 600 м 
[Sc]
-3 -7.6 71 -4  1020.3  -0.7  754  308           
03 18.03.17 150 (ЮВ) 10 км    10/0 средняя 
[As op]
-3.4 -8 70 -5  1019.7  -0.6  753  308  -3.4    0.6  43  равномерный
сухой снег
100% 
06 18.03.17 150 (ЮВ) 10 км    10/0 средняя 
[Ac As]
-4 -8.4 71 -6  1019.6  0.1  753  309  -4         
09 18.03.17 170 (Ю) 2{10}  10 км  слаб. снег  10/8 600 м средняя 
[Sc|As op]
-4.2 -7.8 76 -5  1019.7  0.1  753  309           
12 18.03.17 140 (ЮВ) 10 км  {снег}  10/10 300 м 
[Sc]
-3.6 -6.8 78 -5  1019.5  0.1  753  308           
15 18.03.17 140 (ЮВ) 4000 м  слаб. снег  10/9 300 м средняя 
[Sc|As op]
-3.4 -5.3 87 -5  1019.7  0.1  753  308    -3.3  0.2     
18 18.03.17 140 (ЮВ) 10 км  слаб. снег  10/10 600 м 
[Sc]
-3.4 -5.3 87 -6  1019.8  0.2  753  308           
21 18.03.17 150 (ЮВ) 10 км  {снег}  10/0 средняя 
[As op]
-3.6 -5.7 85 -5  1019.7  0.1  753  308           
00 19.03.17 140 (ЮВ) 10 км  {снег}  10/0 средняя 
[As op]
-3.6 -6.2 82 -5  1019.4  -0.3  753  308           
03 19.03.17 140 (ЮВ) 10 км    10/0 средняя 
[As op]
-4.6 -7.7 79 -4  1019.5  753  309  -4.6    0.0  43  равномерный
сухой снег
100% 
06 19.03.17 130 (ЮВ) 10 км    9/3 600 м верхняя 
[Sc|Cs]
-3.8 -7.6 75 -6  1019.1  -0.4  753  308  -4.9         
09 19.03.17 140 (ЮВ) 10 км    8/0 средняя, верхняя 
[Ac trans|Cs]
-3.1 -9.1 63 -5  1018.9  0.1  753  308           
12 19.03.17 140 (ЮВ) 10 км    4/0 верхняя 
[Ci fib]
-1.6 -7.9 62 -3  1018.2  -0.5  752  306           
15 19.03.17 140 (ЮВ) 10 км    10/8 600 м средняя, верхняя 
[Sc|Ac trans|Ci fib]
-2.8 -7 73 -4  1018.5  0.2  752  307    -1.2       
18 19.03.17 150 (ЮВ) 10 км    10/9 300 м средняя 
[Sc|Ac und]
-3.3 -6.8 77 -5  1019  0.4  753  308           
21 19.03.17 140 (ЮВ) 10 км    10/10 300 м 
[Sc]
-3.9 -7.1 78 -5  1018.9  0.1  753  308           
00 20.03.17 130 (ЮВ) 10 км    10/10 300 м 
[Sc]
-4.4 -7 82 -6  1018.9  753  309           
03 20.03.17 120 (ЮВ) 10 км    10/10 300 м 
[Sc]
-4.3 -6.4 85 -6  1019  -0.1  753  309  -4.5      43  равномерный
сухой снег
100% 
06 20.03.17 140 (ЮВ) 10 км    10/10 600 м 
[Sc]
-3.3 -5.5 85 -5  1019.4  0.5  753  308           
09 20.03.17 130 (ЮВ) 10 км    10/10 600 м 
[Sc]
-2 -4.8 81 -4  1020.2  0.9  754  307           
12 20.03.17 130 (ЮВ) 10 км    10/10 300 м 
[Sc]
-0.9 -4.5 77 -2  1020.4  0.4  754  305           
15 20.03.17 110 (В) 10 км    10/6 600 м средняя 
[Sc|Ac As]
-1.5 -4.7 79 -2  1020.7  0.2  754  306    -0.9       
18 20.03.17 110 (В) 10 км    10/8 600 м средняя 
[Sc|Ac und]
-1.7 -5 78 -3  1020.9  0.2  754  306           
21 20.03.17 120 (ЮВ) 10 км    10/8 1000 м средняя 
[Sc|Ac und]
-1.9 -6 74 -3  1021  754  307           
00 21.03.17 100 (В) 10 км    10/0 средняя 
[As op]
-3.5 -7.9 72 -3  1021  0.1  754  309           
03 21.03.17 100 (В) 10 км    10/0 средняя, верхняя 
[Ac trans|Ci fib]
-5 -9.9 68 -6  1021.3  0.3  755  311  -5      43  равномерный
сухой снег
100% 
06 21.03.17 140 (ЮВ) 10 км    10/0 верхняя 
[Ci fib]
-2.4 -10.5 54 -4  1021.6  0.4  755  308  -5         
09 21.03.17 120 (ЮВ) 10 км    10/0 верхняя 
[Ci fib]
-0.6 -9.2 52 -2  1021.5  755  306           
12 21.03.17 150 (ЮВ) 10 км    10/0 верхняя 
[Cs]
+0.4 -8.3 52 1021.6  0.1  755  305           
15 21.03.17 120 (ЮВ) 10 км    10/0 верхняя 
[Cs]
-0.5 -8.5 55 1021.6  755  306    +0.7       
18 21.03.17 110 (В) 10 км    10/0 верхняя 
[Cs]
-0.7 -7.9 58 -2  1022.2  0.5  755  306           
21 21.03.17 110 (В) 10 км    10/0 средняя 
[As op]
-0.6 -9 53 1022.6  0.3  756  306           
00 22.03.17 090 (В) 10 км    8/0 средняя, верхняя 
[Ac lent|Ci fib]
-1.6 -9.6 54 -1  1023.4  0.7  756  307           
03 22.03.17 110 (В) 10 км    8/0 средняя, верхняя 
[Ac As|Ci fib]
-1.8 -12.1 45 -1  1024.2  0.8  757  308  -2      42  равномерный
мокрый или
старый снег
100% 
06 22.03.17 150 (ЮВ) 10 км    10/0 верхняя 
[Cs]
-0.4 -12.7 39 -1  1024.8  0.6  757  307           
09 22.03.17 160 (Ю) 10 км    10/0 средняя, верхняя 
[As op|Cs]
+1.9 -11.1 37 +3  1024.6  757  304           
12 22.03.17 130 (ЮВ) 10 км    10/0 верхняя 
[Cs]
+3.4 -10.7 35 +3  1024.1  -0.5  757  302           
15 22.03.17 100 (В) 10 км    10/0 верхняя 
[Cs]
+1.6 -8.2 48 +1  1023.6  -0.5  756  304    +3.9       
18 22.03.17 130 (ЮВ) 10 км    5/0 верхняя 
[Ci fib]
+0.4 -8.6 51 +1  1024  0.3  757  305           
21 22.03.17 140 (ЮВ) 10 км    ясно 
-0.1 -10.1 47 -1  1023.8  -0.2  757  306           
00 23.03.17 140 (ЮВ) 10 км    ясно 
-3 -9.9 59 -3  1023.4  -0.6  756  309           
03 23.03.17 140 (ЮВ) 10 км    8/3 600 м верхняя 
[Sc|Cs]
-4.7 -9.8 67 -4  1023.1  -0.3  756  311  -4.7      42  равномерный
мокрый или
старый снег
100% 
06 23.03.17 160 (Ю) 10 км    10/10 600 м 
[Sc]
-2.1 -7.2 68 -3  1022.3  -0.6  755  307  -4.9         
09 23.03.17 170 (Ю) 10 км    10/10 600 м 
[Sc]
+0 -4 74 -1  1021.1  -1  755  305           
12 23.03.17 180 (Ю) 10 км    10/10 600 м 
[Sc diur, vesp]
+0.7 -2.4 80 1019.6  -1.5  753  303           
15 23.03.17 180 (Ю) 2000 м  снег  10/10 300 м 
[Sc]
+0.5 -1.9 84 +1  1019.5  0.1  753  303    +1  0.0     
18 23.03.17 260 (З) 10 км  {снег}  10/9 300 м средняя 
[Sc|As op]
+0.7 -0.6 91 1019.7  0.3  754  303           
21 23.03.17 290 (З) 10 км  {дождь}  10/9 300 м средняя 
[Sc|Ac und]
+0.8 -0.9 88 +1  1020.6  0.8  754  303           
00 24.03.17 240 (ЮЗ) 10 км  {дождь}  10/8 600 м средняя 
[Sc|Ac und]
+0.7 -0.9 89 +1  1020.8  0.2  754  303           
03 24.03.17 200 (Ю) 10 км    5/0 средняя 
[Ac As]
-0.4 -1.6 92 1021  0.1  754  305  -0.4    42  равномерный
мокрый или
старый снег
100% 
06 24.03.17 270 (З) 10 км    ясно 
+2.7 -0.9 77 +1  1020.9  0.1  755  301           
09 24.03.17 280 (З) 10 км    5/0 верхняя 
[Ci fib]
+4.5 -0.9 68 +3  1020.3  -0.5  754  299           
12 24.03.17 270 (З) 10 км    10/1 600 м верхняя 
[Sc|Cs]
+4.9 -1.4 64 +3  1019.5  -0.7  754  298           
15 24.03.17 240 (ЮЗ) 10 км    10/0 верхняя 
[Cs]
+3.6 -3 62 +4  1018.6  -1  753  300    +5       
18 24.03.17 140 (ЮВ) 10 км    10/0 средняя 
[As op]
+1.9 -2.3 74 +3  1017.1  -1.5  752  301           
21 24.03.17 110 (В) 10 км    10/0 средняя 
[Ac As]
+1.5 -2.2 76 +2  1013.9  -3.2  749  300           
00 25.03.17 120 (ЮВ) 10 км    10/0 средняя 
[As op]
+1.3 -1.9 79 +1  1009.9  -3.9  746  299           
03 25.03.17 140 (ЮВ) 2000 м  снег  10/10 300 м 
[Sc diur, vesp]
-0.2 -1.2 93 -1  1004.7  -5.2  742  299  -0.2    41  равномерный
мокрый или
старый снег
100% 
06 25.03.17 140 (ЮВ) 4000 м  слаб. снег  10/10 300 м 
[Ns]
+0.4 -0.4 94 +1  1000.4  -4.1  739  297  -0.2         
09 25.03.17 300 (СЗ) 10 км  {снег}  10/8 600 м кучево-дожд., средняя 
[Cb cap|As op]
+1.2 +0.3 94 +1  999.3  -1  739  296           
12 25.03.17 290 (З) 10 км  {снег}  10/10 600 м 
[Sc diur, vesp]
+2.3 -0.4 82 +1  999.2  738  295           
15 25.03.17 280 (З) 2000 м  слаб. ливневой дождь со снегом  10/8 300 м кучево-дожд., средняя 
[Cb cap|As op]
+0.7 -0.9 89 -1  1000.5  1.1  739  297    +2.4     
18 25.03.17 290 (З) 4000 м  слаб. ливневой снег  10/8 300 м кучево-дожд., средняя 
[Cb cap|As op]
-0.3 -1.4 92 -2  1002  1.5  740  299           
21 25.03.17 280 (З) 10 км  в посл. час ливневой снег  10/8 600 м кучево-дожд., средняя 
[Cb cap|Ac trans]
-1.5 -2.4 94 -4  1003.1  741  301           
00 26.03.17 270 (З) 10 км  {ливн. осадки}  10/10 600 м 
[Sc]
-2.9 -5.8 80 -5  1004.4  742  303           
03 26.03.17 260 (З) 10 км    10/10 600 м 
[Sc]
-3.4 -5.7 84 -6  1004.8  742  303  -3.9    42  равномерный
сухой снег
100% 
06 26.03.17 260 (З) 4000 м  снег  10/10 600 м 
[Sc diur, vesp]
-1.7 -3.7 86 -4  1004.9  0.2  743  301           
09 26.03.17 280 (З) 10 км  слаб. снег{ливн. осадки}  10/8 300 м кучево-дожд., средняя 
[Cb cap|As op]
+0.9 -1.6 83 -1  1005.6  0.9  743  299           
12 26.03.17 280 (З) 3{10}  10 км  в посл. час снег{ливн. осадки}  10/8 300 м кучево-дожд., средняя 
[Cb cap|Ac trans]
+1.8 -1.8 77 1006.8  1.2  744  298           
15 26.03.17 250 (З) 10 км    8/5 600 м средняя, верхняя 
[Sc|Ac trans|Ci fib]
+2.4 -3.6 65 +2  1006.8  744  298    +2.6  0.4     
18 26.03.17 280 (З) 10 км    3/0 средняя 
[Ac lent]
+0.7 -5.4 64 1006.7  -0.2  744  300           
21 26.03.17 240 (ЮЗ) 10 км    3/0 средняя 
[Ac lent]
+0.2 -6.3 62 -1  1005.2  -1.5  743  300           
00 27.03.17 160 (Ю) 10 км    ясно 
-2.1 -6.6 71 -3  1002.6  -2.6  741  301           
03 27.03.17 150 (ЮВ) 10 км    8/1 600 м средняя, верхняя 
[Sc|Ac lent|Cs]
-2.7 -6.7 74 -4  999.9  -2.7  739  301  -3.4      42  равномерный
сухой снег
100% 
06 27.03.17 180 (Ю) 10 км    10/0 средняя 
[Ac trans]
+1.6 -6 57 +1  997.6  -2.1  737  296           
09 27.03.17 230 (ЮЗ) 10 км    10/1 300 м верхняя 
[Cu hum|Cs]
+4.3 -5.9 47 +3  996.9  -0.5  737  293           
12 27.03.17 210 (ЮЗ) 3{12}  10 км    10/6 600 м средняя 
[Sc diur, vesp|As op]
+4.2 -5.9 48 +3  996.4  -0.6  736  293           
15 27.03.17 210 (ЮЗ) 10 км  слаб. снег  10/8 600 м средняя 
[Sc diur, vesp|As op]
+1.9 -3.5 67 +1  996.7  0.2  737  295    +4.8  0.0     
18 27.03.17 170 (Ю) 10 км  слаб. снег  10/8 300 м средняя 
[Sc|As op]
+0.2 -1.5 88 -1  996.1  -0.7  736  296           
21 27.03.17 190 (Ю) 10 км  слаб. дождь со снегом  10/9 300 м средняя 
[Sc|As op]
-0.1 -1.4 91 +1  994.4  -1.6  735  296           
00 28.03.17 150 (ЮВ) 10 км  {снег, дождь}  10/8 200 м средняя 
[Frnb|Ac As]
-0.6 -1.8 92 992.4  -2  733  296           
03 28.03.17 220 (ЮЗ) 10 км  слаб. снег  10/8 300 м средняя 
[Sc|As op]
-0.4 -1.7 91 -1  991.3  -1.1  732  296  -0.6    42  равномерный
мокрый или
старый снег
100% 
06 28.03.17 280 (З) 10 км  в посл. час дождь со снегом  10/8 300 м кучево-дожд., средняя 
[Cb cap|As op]
+0.6 -1.1 88 990.8  -0.4  732  294           
09 28.03.17 270 (З) 10 км    9/8 600 м средняя 
[Sc diur, vesp|Ac trans]
+1.8 -2.8 71 991.3  0.6  733  294           
12 28.03.17 250 (З) 10 км    10/8 600 м кучево-дожд., средняя 
[Cb cap|Ac und]
+2.3 -4.8 59 +1  991.5  0.3  733  293           
15 28.03.17 230 (ЮЗ) 10 км    10/6 600 м средняя 
[Sc|Ac und]
+1.4 -4.2 66 +2  992.3  0.8  733  294    +2.7  0.0     
18 28.03.17 240 (ЮЗ) 10 км    8/0 средняя, верхняя 
[Ac trans|Ci fib]
+0.2 -3.9 74 +1  993.2  0.8  734  296           
21 28.03.17 270 (З) 10 км    8/0 средняя, верхняя 
[Ac trans|Cs]
-0.7 -3.5 81 993.2  0.1  734  297           
00 29.03.17 270 (З) 10 км    3/0 средняя 
[Ac lent]
-2 -3.8 87 -1  992.7  -0.5  734  298           
03 29.03.17 290 (З) 10 км  слаб. снег  10/6 600 м верхняя 
[Sc|Ci fib]
-1.9 -3.2 91 -3  993.2  0.5  734  298  -2.4    0.0  40  равномерный
сухой снег
100% 
06 29.03.17 330 (СЗ) 2000 м  снег  10/10 600 м 
[Ns]
-2.6 -4.6 86 -5  995.2  1.9  735  300  -2.6         
09 29.03.17 320 (СЗ) 10 км  {снег}  10/3 600 м средняя 
[Sc|As op]
-0.7 -8.9 54 -3  996.5  1.3  736  298           
12 29.03.17 330 (СЗ) 3{10}  10 км  {снег}  10/3 600 м верхняя 
[Sc|Cs]
+0.4 -12.2 38 -1  997.8  1.4  737  298           
15 29.03.17 330 (СЗ) 3{10}  10 км  в посл. час ливневой снег  3/3 600 м кучево-дожд. 
[Cb cap]
-1.5 -11 48 -3  999.7  1.7  739  300    +0.6  0.5     
18 29.03.17 300 (СЗ) 3{10}  10 км  {ливн. осадки}  3/0 средняя 
[Ac lent]
-3.1 -9.8 60 -5  1001.9  1.4  740  303           
21 29.03.17 290 (З) 3{10}  10 км    3/0 средняя 
[Ac lent]
-4.8 -10 67 -7  1003.4  1.4  741  305           
00 30.03.17 280 (З) 10 км    ясно 
-6.1 -10 74 -8  1004.6  742  307           
03 30.03.17 300 (СЗ) 10 км    ясно 
-6.9 -10.3 77 -8  1006.3  1.7  743  308  -6.9      40  равномерный
сухой снег
100% 
06 30.03.17 280 (З) 10 км    ясно 
-4.4 -10.9 60 -7  1007.5  1.3  744  306           
09 30.03.17 260 (З) 10 км    8/8 300 м кучево-дожд. 
[Cb cap]
-1.5 -10.8 49 -4  1007.6  0.3  745  303           
12 30.03.17 260 (З) 10 км  в посл. час ливневой снег  9/8 300 м кучево-дожд., средняя 
[Cb cap|Ac cuf]
-3.4 -5.4 86 -5  1009.5  1.7  746  305           
15 30.03.17 350 (С) 0200 м  ливневой снег  10/10 300 м кучево-дожд. 
[Cb cap]
-4.3 -6.7 83 -4  1011.2  1.7  747  307    -1.1  0.8     
18 30.03.17 280 (З) 10 км  {ливн. осадки}  3/3 600 м 
[Sc]
-5 -7.1 85 -6  1013.3  749  308           
21 30.03.17 290 (З) 10 км    ясно 
-6.3 -9.4 79 -8  1014.4  749  310           
00 31.03.17 270 (З) 10 км    ясно 
-7.7 -10.8 78 -9  1016  1.5  750  312           
03 31.03.17 280 (З) 10 км    ясно 
-8.6 -11.1 82 -8  1018.3  2.2  752  314  -8.6    45  равномерный
сухой снег
100% 
06 31.03.17 290 (З) 10 км    ясно 
-4.8 -9.6 69 -7  1020.2  754  310           
09 31.03.17 290 (З) 10 км    8/8 600 м кучево-дожд. 
[Cb cap]
-1.9 -12.9 43 -4  1021  0.9  754  307           
12 31.03.17 270 (З) 10 км  {снег}  6/6 600 м 
[Sc diur, vesp]
-1.4 -13.8 38 -4  1021.5  0.5  755  307           
15 31.03.17 270 (З) 10 км    6/3 600 м средняя, верхняя 
[Sc diur, vesp|Ac trans|Ci fib]
-3 -13 46 -5  1021.5  755  309    -0.8  0.0     
18 31.03.17 160 (Ю) 10 км    3/0 верхняя 
[Ci fib]
-5.3 -14.4 49 -5  1022.2  0.5  755  312           
21 31.03.17 140 (ЮВ) 10 км    4/0 верхняя 
[Ci fib]
-7.5 -14.5 57 -7  1022.4  0.1  755  314           
00 01.04.17 130 (ЮВ) 10 км    3/0 верхняя 
[Ci fib]
-7.7 -14 61 -7  1021.7  -0.7  755  314           
03 01.04.17 100 (В) 10 км    10/0 средняя 
[Ac As]
-7 -13.2 61 -7  1021.7  755  313  -8.5      44  равномерный
сухой снег
100% 
Время (UTC), дата Ветер
(°,м/с) 
Видим.   Явления Облачность Т
(°С)
Тd
(°С)
f(%) Тe
(°С)
Pmin
(гПа)
dP
(гПа)
Po
(мм)
O2
(г/м3)
Тmin Tmax R s Состояние
почвы